Tracking 30743 objects as of 21-Jun-2025
HD Live streaming from Space Station
objects crossing your sky now

NOAA 16 DEB

Track NOAA 16 DEB now!
10-day predictions


NORAD ID: 42384
Int'l Code: 2000-055SC
Perigee: 790.7 km
Apogee: 806.7 km
Inclination: 98.7 °
Period: 100.7 minutes
Semi major axis: 7169 km
RCS: Unknown
Launch date: September 21, 2000
Source: United States (US)
Launch site: AIR FORCE WESTERN TEST RANGE (AFWTR)

Note: This is SATELLITE DEBRIS
Your satellite tracking list
Your tracking list is empty




NASA's NSSDC Master Catalog

Two Line Element Set (TLE):
1 42384U 00055SC  25170.45755854  .00003781  00000-0  14798-2 0  9999
2 42384  98.6834 243.5370 0011166 290.1134  69.8847 14.30055285480063
Source of the keplerian elements: AFSPC